Location: Unspecified
(0.0000°N, 0.0000°E)
Time: 22:45:20
(UTC+01:00)

IUS-9 SRM-1 - Visible Passes

Search period start: 18 December 2014 00:00
Search period end: 28 December 2014 00:00
Orbit: 261 x 20525 km, 26.5° (Epoch: 17 December)

Date Brightness Start Highest point End Pass type
(mag) Time Alt. Az. Time Alt. Az. Time Alt. Az.
18 Dec 4.0 05:14:28 31° NW 05:17:40 45° NNE 05:21:11 10° E visible
18 Dec 8.5 17:58:09 10° WSW 19:35:54 75° WNW 22:28:32 46° NNE visible
19 Dec 3.9 05:15:40 32° NW 05:18:51 49° NNE 05:22:17 10° E visible
19 Dec 8.5 17:59:18 10° WSW 19:36:45 74° WNW 22:29:52 46° NNE visible
20 Dec 3.7 05:16:47 33° NW 05:19:55 53° NNE 05:23:17 10° E visible
20 Dec 8.5 18:00:22 10° WSW 19:37:35 73° WNW 22:31:06 46° NNE visible
21 Dec 3.5 05:17:49 34° NW 05:20:54 57° NNE 05:24:12 10° E visible
21 Dec 8.5 18:01:22 10° WSW 19:38:26 71° WNW 22:32:16 46° NNE visible
22 Dec 3.4 05:18:47 35° NW 05:21:48 62° NNE 05:25:02 10° ESE visible
22 Dec 8.5 18:02:18 10° WSW 19:39:15 70° WNW 22:33:21 46° NNE visible
23 Dec 3.3 05:19:39 36° NW 05:22:35 68° NNE 05:25:47 10° ESE visible
23 Dec 8.4 18:03:08 10° WSW 19:40:04 69° WNW 22:34:21 46° NNE visible
24 Dec 3.1 05:20:27 37° NW 05:23:17 75° NNE 05:26:26 10° ESE visible
24 Dec 8.4 18:03:54 10° WSW 19:40:52 68° WNW 22:35:16 46° NNE visible
25 Dec 3.1 05:21:10 38° WNW 05:23:54 81° NNE 05:27:00 10° ESE visible
25 Dec 8.4 18:04:36 10° WSW 19:41:40 67° WNW 22:36:06 46° NNE visible
26 Dec 3.0 05:21:48 39° WNW 05:24:24 89° NNE 05:27:29 10° ESE visible
26 Dec 8.4 18:05:13 10° WSW 19:42:28 66° WNW 22:36:51 46° NNE visible
27 Dec 3.0 05:22:22 40° WNW 05:24:50 84° SSW 05:27:52 10° ESE visible
27 Dec 8.4 18:05:46 10° WSW 19:43:14 65° WNW 22:37:32 46° NNE visible
